Date String (YYYY-MM-DD hh:mm:ss) UTC,Instrument flags,Ambient pressure (hPa),Sample flow (lpm),Bypass flow (lpm),Sample temperature (°C),Ambient temperature (°C),ASC tube jacket temperature (°C),LED temperature (°C),Box temperature (°C),Sample RH (%),Span deviation,Mass concentration (μg/m³),Mass concentration (μg/m³),Mass concentration (μg/m³)
DateTimeUTC,F1_M11,P_M11,Q1_M11,Q2_M11,T1_M11,T2_M11,T3_M11,T4_M11,T5_M11,U1_M11,ZSPAN_M11,X0_M11,X2_M11,X1_M11
2022-12-09 21:00:00,,0820.2,5.00,0.00,24.7,23.3,00.0,33.6,26.6,07.7,0000.0,0001.55,0001.06,0000.92
2022-12-09 21:01:00,,0820.2,4.98,0.00,24.7,23.3,00.0,33.6,26.6,07.7,0000.0,0001.52,0001.05,0000.92
2022-12-09 21:02:00,,0820.2,5.00,0.00,24.7,23.2,00.0,33.6,26.5,07.7,0000.0,0001.53,0001.06,0000.93
2022-12-09 21:03:00,,0820.2,5.01,0.00,24.7,23.1,00.0,33.6,26.5,07.7,0000.0,0001.70,0001.11,0000.93
2022-12-09 21:04:00,,0820.2,5.02,0.00,24.6,23.0,00.0,33.6,26.4,07.8,0000.0,0001.70,0001.11,0000.93
2022-12-09 21:05:00,,0820.2,5.00,0.00,24.6,23.1,00.0,33.6,26.4,08.1,0000.0,0001.70,0001.13,0000.93
2022-12-09 21:06:00,,0820.2,4.99,0.00,24.6,23.1,00.0,33.5,26.4,08.1,0000.0,0001.72,0001.12,0000.93
2022-12-09 21:07:00,,0820.2,4.99,0.00,24.6,23.2,00.0,33.5,26.5,08.1,0000.0,0001.87,0001.12,0000.93
2022-12-09 21:08:00,,0820.2,5.00,0.00,24.7,23.2,00.0,33.5,26.5,07.9,0000.0,0001.93,0001.14,0000.94
2022-12-09 21:09:00,,0820.2,5.01,0.00,24.7,23.3,00.0,33.5,26.5,08.0,0000.0,0002.02,0001.18,0000.95
2022-12-09 21:10:00,,0820.2,5.01,0.00,24.7,23.3,00.0,33.5,26.5,08.1,0000.0,0002.01,0001.18,0000.94
2022-12-09 21:11:00,,0820.2,4.98,0.00,24.7,23.3,00.0,33.5,26.5,08.1,0000.0,0002.10,0001.19,0000.94
2022-12-09 21:12:00,,0820.2,4.99,0.00,24.7,23.3,00.0,33.5,26.5,08.3,0000.0,0002.19,0001.21,0000.94
2022-12-09 21:13:00,,0820.2,5.00,0.00,24.7,23.4,00.0,33.5,26.6,08.4,0000.0,0002.40,0001.24,0000.93
2022-12-09 21:14:00,,0820.2,5.02,0.00,24.7,23.4,00.0,33.5,26.5,08.4,0000.0,0002.40,0001.21,0000.93
2022-12-09 21:15:00,,0820.2,4.99,0.00,24.7,23.4,00.0,33.6,26.5,08.4,0000.0,0002.80,0001.23,0000.93
2022-12-09 21:16:00,,0820.2,4.98,0.00,24.7,23.4,00.0,33.6,26.6,08.3,0000.0,0002.86,0001.22,0000.92
2022-12-09 21:17:00,,0820.2,5.00,0.00,24.7,23.4,00.0,33.6,26.6,08.4,0000.0,0002.86,0001.23,0000.91
2022-12-09 21:18:00,,0820.2,5.02,0.00,24.7,23.4,00.0,33.6,26.6,08.3,0000.0,0002.70,0001.22,0000.90
2022-12-09 21:19:00,,0820.2,5.01,0.00,24.7,23.4,00.0,33.6,26.6,08.3,0000.0,0002.67,0001.21,0000.90
2022-12-09 21:20:00,,0820.2,4.99,0.00,24.8,23.4,00.0,33.6,26.6,08.3,0000.0,0002.60,0001.19,0000.89
2022-12-09 21:21:00,,0820.1,4.98,0.00,24.8,23.4,00.0,33.6,26.6,08.3,0000.0,0002.56,0001.18,0000.89
2022-12-09 21:22:00,,0820.0,5.00,0.00,24.8,23.4,00.0,33.6,26.6,08.4,0000.0,0002.46,0001.15,0000.88
2022-12-09 21:23:00,,0820.0,5.02,0.00,24.8,23.4,00.0,33.6,26.6,08.4,0000.0,0003.71,0001.13,0000.87
2022-12-09 21:24:00,,0820.1,5.01,0.00,24.8,23.4,00.0,33.6,26.6,08.4,0000.0,0003.71,0001.14,0000.86
2022-12-09 21:25:00,,0820.1,4.99,0.00,24.8,23.4,00.0,33.6,26.6,08.4,0000.0,0003.60,0001.11,0000.85
2022-12-09 21:26:00,,0820.1,4.99,0.00,24.8,23.4,00.0,33.6,26.6,08.3,0000.0,0003.21,0001.09,0000.84
2022-12-09 21:27:00,,0820.2,4.99,0.00,24.8,23.3,00.0,33.6,26.6,08.3,0000.0,0003.05,0001.06,0000.83
2022-12-09 21:28:00,,0820.2,5.00,0.00,24.8,23.3,00.0,33.6,26.6,08.3,0000.0,0002.98,0001.05,0000.82
2022-12-09 21:29:00,,0820.2,5.01,0.00,24.8,23.3,00.0,33.6,26.5,08.4,0000.0,0003.07,0001.09,0000.83
2022-12-09 21:30:00,,0820.1,5.01,0.00,24.7,23.3,00.0,33.6,26.5,08.5,0000.0,0003.16,0001.08,0000.83
2022-12-09 21:31:00,,0820.1,5.01,0.00,24.8,23.3,00.0,33.6,26.6,08.5,0000.0,0003.07,0001.05,0000.82
2022-12-09 21:32:00,,0820.2,4.99,0.00,24.8,23.3,00.0,33.6,26.6,08.5,0000.0,0003.03,0001.03,0000.81
2022-12-09 21:33:00,,0820.2,5.00,0.00,24.7,23.3,00.0,33.6,26.5,08.5,0000.0,0003.04,0001.04,0000.81
2022-12-09 21:34:00,,0820.2,4.99,0.00,24.7,23.3,00.0,33.6,26.5,08.5,0000.0,0002.02,0001.05,0000.80
2022-12-09 21:35:00,,0820.2,5.00,0.00,24.7,23.3,00.0,33.6,26.6,08.5,0000.0,0001.66,0001.02,0000.80
2022-12-09 21:36:00,,0820.2,5.00,0.00,24.7,23.3,00.0,33.6,26.5,08.5,0000.0,0001.72,0001.05,0000.81
2022-12-09 21:37:00,,0820.2,5.00,0.00,24.7,23.3,00.0,33.6,26.5,08.5,0000.0,0001.74,0001.06,0000.82
2022-12-09 21:38:00,,0820.2,5.01,0.00,24.7,23.3,00.0,33.6,26.5,08.4,0000.0,0001.78,0001.07,0000.81
2022-12-09 21:39:00,,0820.2,5.01,0.00,24.7,23.3,00.0,33.6,26.5,08.4,0000.0,0001.82,0001.08,0000.82
2022-12-09 21:40:00,,0820.3,5.00,0.00,24.7,23.3,00.0,33.6,26.5,08.5,0000.0,0001.83,0001.08,0000.81
2022-12-09 21:41:00,,0820.3,5.00,0.00,24.7,23.3,00.0,33.6,26.5,08.4,0000.0,0001.73,0001.08,0000.81
2022-12-09 21:42:00,,0820.2,4.99,0.00,24.7,23.3,00.0,33.6,26.5,08.5,0000.0,0001.75,0001.09,0000.82
2022-12-09 21:43:00,,0820.3,5.01,0.00,24.7,23.3,00.0,33.6,26.5,08.5,0000.0,0001.82,0001.13,0000.82
2022-12-09 21:44:00,,0820.3,5.01,0.00,24.7,23.3,00.0,33.6,26.5,08.5,0000.0,0002.77,0001.19,0000.84
2022-12-09 21:45:00,,0820.3,5.01,0.00,24.7,23.3,00.0,33.6,26.5,08.5,0000.0,0002.91,0001.21,0000.84
2022-12-09 21:46:00,,0820.3,5.00,0.00,24.7,23.3,00.0,33.6,26.5,08.6,0000.0,0002.89,0001.21,0000.83
2022-12-09 21:47:00,,0820.4,4.99,0.00,24.7,23.3,00.0,33.6,26.5,08.6,0000.0,0002.77,0001.17,0000.83
2022-12-09 21:48:00,,0820.2,4.99,0.00,24.7,23.3,00.0,33.6,26.5,08.5,0000.0,0002.73,0001.16,0000.83
2022-12-09 21:49:00,,0820.3,5.00,0.00,24.7,23.3,00.0,33.6,26.6,08.4,0000.0,0002.69,0001.16,0000.84
2022-12-09 21:50:00,,0820.3,5.01,0.00,24.7,23.3,00.0,33.6,26.6,08.5,0000.0,0002.68,0001.15,0000.84
2022-12-09 21:51:00,,0820.2,5.01,0.00,24.7,23.3,00.0,33.6,26.6,08.5,0000.0,0002.62,0001.10,0000.83
2022-12-09 21:52:00,,0820.3,5.01,0.00,24.7,23.3,00.0,33.6,26.6,08.5,0000.0,0002.63,0001.11,0000.83
2022-12-09 21:53:00,,0820.4,5.00,0.00,24.7,23.3,00.0,33.6,26.6,08.5,0000.0,0002.62,0001.10,0000.83
2022-12-09 21:54:00,,0820.4,4.99,0.00,24.7,23.3,00.0,33.6,26.6,08.5,0000.0,0002.64,0001.09,0000.83
2022-12-09 21:55:00,,0820.4,4.99,0.00,24.7,23.2,00.0,33.6,26.5,08.5,0000.0,0001.86,0001.03,0000.82
2022-12-09 21:56:00,,0820.3,4.99,0.00,24.7,23.2,00.0,33.6,26.5,08.6,0000.0,0001.49,0000.99,0000.82
2022-12-09 21:57:00,,0820.4,5.01,0.00,24.7,23.3,00.0,33.6,26.5,08.5,0000.0,0002.48,0000.98,0000.84
2022-12-09 21:58:00,,0820.5,5.02,0.00,24.7,23.3,00.0,33.6,26.4,08.6,0000.0,0002.89,0000.99,0000.84
2022-12-09 21:59:00,,0820.4,4.99,0.00,24.7,23.3,00.0,33.6,26.4,08.7,0000.0,0002.92,0000.99,0000.84
